LKKB Weather Reports


time (UTC)temp
F
wind
direction
speed
knots
gust
knots
rain 1hr
in
rain 24hr
in
rain mn
in
humidity
%
barometer
mb
20260904073102 68 210 10.4 0.0 0.00 0.00 0.00 72 1017.0
20260904072112 68 220 12.2 0.0 0.00 0.00 0.00 68
20260904063102 66 210 11.3 0.0 0.00 0.00 0.00 72 1017.0
20260904061856 64 220 10.4 0.0 0.00 0.00 0.00 77
20260904060104 64 220 8.7 0.0 0.00 0.00 0.00 82 1017.0
20260904054302 64 220 11.3 0.0 0.00 0.00 0.00 77 1017.0
20260904053103 64 210 10.4 0.0 0.00 0.00 0.00 77 1017.0
20260904051856 64 210 7.8 0.0 0.00 0.00 0.00 72
20260904043102 63 210 7.8 0.0 0.00 0.00 0.00 82 1017.0
20260904042257 63 200 7.8 0.0 0.00 0.00 0.00 77
20260904040103 63 200 7.8 0.0 0.00 0.00 0.00 82 1017.0
20260904033102 63 200 7.8 0.0 0.00 0.00 0.00 82 1017.0
20260904030103 64 210 7.8 0.0 0.00 0.00 0.00 77 1018.0
20260904023103 63 210 7.0 0.0 0.00 0.00 0.00 82 1018.0
20260904021856 64 210 7.8 0.0 0.00 0.00 0.00 77
20260904013103 64 230 7.8 0.0 0.00 0.00 0.00 77 1018.0
20260904012156 64 230 7.8 0.0 0.00 0.00 0.00 72
20260904010104 64 230 7.0 0.0 0.00 0.00 0.00 77 1018.0
20260904003103 64 210 7.0 0.0 0.00 0.00 0.00 77 1018.0
20260904001856 64 210 10.4 0.0 0.00 0.00 0.00 77
20260904000103 64 210 10.4 0.0 0.00 0.00 0.00 77 1018.0
20260903233103 64 210 8.7 0.0 0.00 0.00 0.00 77 1019.0
20260903231856 64 210 10.4 0.0 0.00 0.00 0.00 77
20260903223102 64 210 8.7 0.0 0.00 0.00 0.00 77 1018.0
20260903222257 66 220 10.4 0.0 0.00 0.00 0.00 68
20260903213102 64 230 8.7 0.0 0.00 0.00 0.00 77 1019.0
20260903211857 66 230 10.4 0.0 0.00 0.00 0.00 68
20260903203103 64 220 8.7 0.0 0.00 0.00 0.00 77 1019.0
20260903201857 64 210 10.4 0.0 0.00 0.00 0.00 72
20260903193103 64 230 8.7 0.0 0.00 0.00 0.00 72 1019.0
20260903192056 66 240 10.4 0.0 0.00 0.00 0.00 63
20260903190103 66 240 8.7 0.0 0.00 0.00 0.00 68 1019.0
20260903183104 66 250 13.0 0.0 0.00 0.00 0.00 68 1019.0
20260903181856 68 260 13.9 0.0 0.00 0.00 0.00 60
20260903173103 70 260 13.9 0.0 0.00 0.00 0.00 56 1019.0
20260903171910 70 260 13.9 0.0 0.00 0.00 0.00 56
20260903170103 70 250 14.8 0.0 0.00 0.00 0.00 56 1019.0
20260903163103 72 250 13.9 0.0 0.00 0.00 0.00 49 1018.0
20260903162211 73 240 12.2 0.0 0.00 0.00 0.00 46
20260903153102 73 240 8.7 0.0 0.00 0.00 0.00 49 1018.0
20260903151856 73 250 10.4 0.0 0.00 0.00 0.00 43
20260903143103 73 260 7.8 0.0 0.00 0.00 0.00 46 1018.0
20260903141856 73 250 7.8 0.0 0.00 0.00 0.00 43
20260903133102 72 250 10.4 0.0 0.00 0.00 0.00 49 1019.0
20260903132058 73 240 12.2 0.0 0.00 0.00 0.00 43
20260903123104 73 250 13.0 0.0 0.00 0.00 0.00 46 1019.0
20260903121856 73 230 12.2 0.0 0.00 0.00 0.00 43
20260903113102 72 240 7.8 0.0 0.00 0.00 0.00 49 1019.0
20260903111851 72 230 10.4 0.0 0.00 0.00 0.00 46
20260903103103 72 280 11.3 0.0 0.00 0.00 0.00 43 1020.0
20260903102254 72 260 12.2 0.0 0.00 0.00 0.00 40
20260903100104 72 270 7.8 0.0 0.00 0.00 0.00 43 1020.0
20260903093102 70 250 8.7 0.0 0.00 0.00 0.00 49 1020.0
20260903091853 70 240 6.1 0.0 0.00 0.00 0.00 49
20260903083103 68 230 5.2 0.0 0.00 0.00 0.00 60 1020.0
20260903081851 68 240 6.1 0.0 0.00 0.00 0.00 56
20260903080211 66 230 4.3 0.0 0.00 0.00 0.00 63 1021.0